Find Starlink 1545

NORAD ID: 46156 Int'l Des: 2020-057 Owner: SPXS Country: US Constellation: starlink decayed
LEOCIRCULAR

Re-entered — Jul 13, 2026

正在加载3D地球...

About Starlink 1545

Starlink 1545 (NORAD 46156) is a starlink constellation satellite (v1.0) launched Aug 18, 2020 by SPXS of US. It re-entered the atmosphere on Jul 13, 2026. with a mass of 260.00 kg.

高度历史

Loading altitude history...

两行轨道根数

1 46156U 20057AR 26193.89902593 .09897584 12515-4 37208-3 0 9993
2 46156 53.0194 350.4530 0010701 290.7741 69.2160 16.43205886327925
Epoch: Jul 12, 2026 • Age: 1278 hours

当前状态

Position data unavailable
发射日期 Aug 18, 2020
运行时间 6 years
衰减日期 Jul 13, 2026
类型 internet

技术详情

分类 Payload
质量 260.00 kg
干质量 248.00 kg
总质量 260.00 kg
长度 0.20 m
直径 2.80 m
跨度 9.00 m
形状 Box + pan
制造商 SPXS
平台类型 Starlink
阶段状态 Reentered
所有者/国家 SPXS/US

Most Searched